Location: Sweet Grass
(48.9965°N, 111.9649°W)
Time: 12:00:12
(UTC+00:00)

Envisat - Pass Details

Date: 10 December 2022
Orbit: 763 x 765 km, 98.2° (Epoch: 06 February)

Event Time Altitude Azimuth Distance (km) Brightness Sun altitude
Rises 13:17:52 0° 3° (N) 3,246 6.1 -17.5°
Reaches altitude 10° 13:20:43 10° 347° (NNW) 2,315 5.2 -17.1°
Enters shadow 13:22:03 15° 334° (NNW) 1,980 4.8 -16.9°
